Weather History for Norfolk Hampton Roads Executi, VA

Change the Weather History Date:

Wednesday, March 12, 2014

  Actual Average (KNGU) Record (KNGU)
Temperature  
Mean Temperature 51 °F -  
Max Temperature 69 °F 54 °F 82 °F (2006)
Min Temperature 33 °F 39 °F 25 °F (1998)
Degree Days  
Heating Degree Days 14    
Growing Degree Days 1 (Base 50)    
Moisture  
Dew Point 49 °F    
Average Humidity 69    
Maximum Humidity 100    
Minimum Humidity 46    
Precipitation  
Precipitation 0.21 in - - ()
Sea Level Pressure  
Sea Level Pressure 29.46 in    
Wind  
Wind Speed 9 mph (SSW)    
Max Wind Speed 20 mph    
Max Gust Speed 32 mph    
Visibility 10 miles    
Events      
Averages and records for this station are not official NWS values.
T = Trace of Precipitation, MM = Missing Value Source: NWS Daily Summary

Daily Weather History Graph

Daily Weather History Graph

Search for Another Location

Airport:

Trip Planner

Search our weather history database for the weather conditions in past years. The results will help you decide how hot, cold, wet, or windy it might be!

Date:

Astronomy

Mar. 12, 2014 Rise Set
Actual Time 7:21 AM EDT 7:10 PM EDT
Civil Twilight 6:55 AM EDT 7:36 PM EDT
Nautical Twilight 6:25 AM EDT 8:06 PM EDT
Astronomical Twilight 5:55 AM EDT 8:36 PM EDT
Moon 3:43 PM EDT (3/12) 4:46 AM EDT (3/12)
Length of Visible Light 12h 40m
Length of Day
11h 49m
Waxing Gibbous, 85% of the Moon is Illuminated
Mar 12
Waxing Gibbous
Mar 16
Full
Mar 23
Last Quarter
Mar 30
New
Apr 7
First Quarter

Hourly Weather History & Observations

Time (EDT) Temp. Windchill Dew Point Humidity Pressure Visibility Wind Dir Wind Speed Gust Speed Precip Events Conditions
12:15 AM 51.8 °F - 42.8 °F 71% 29.70 in 10.0 mi South 5.8 mph - N/A   Clear
12:35 AM 51.8 °F - 42.8 °F 71% 29.70 in 10.0 mi South 5.8 mph - N/A   Clear
12:55 AM 50.0 °F - 42.8 °F 76% 29.71 in 10.0 mi SSW 4.6 mph - N/A   Clear
1:15 AM 51.8 °F - 42.8 °F 71% 29.70 in 10.0 mi South 4.6 mph - N/A   Clear
1:35 AM 51.8 °F - 44.6 °F 76% 29.70 in 10.0 mi South 4.6 mph - N/A   Clear
1:55 AM 48.2 °F - 42.8 °F 82% 29.69 in 10.0 mi South 3.5 mph - N/A   Clear
2:15 AM 42.8 °F - 39.2 °F 87% 29.68 in 10.0 mi Calm Calm - N/A   Clear
2:35 AM 33.8 °F - - N/A% 29.67 in 10.0 mi Calm Calm - N/A   Clear
2:55 AM 39.2 °F - 39.2 °F 100% 29.66 in 10.0 mi Calm Calm - N/A   Clear
3:15 AM 42.8 °F - 41.0 °F 93% 29.65 in 10.0 mi Calm Calm - N/A   Clear
3:35 AM 42.8 °F 41.1 °F 42.8 °F 100% 29.64 in 10.0 mi SSE 3.5 mph - N/A   Clear
3:55 AM 46.4 °F 42.9 °F 44.6 °F 93% 29.63 in 10.0 mi South 6.9 mph - N/A   Clear
4:15 AM 51.8 °F - 44.6 °F 76% 29.62 in 10.0 mi South 5.8 mph - N/A   Clear
4:35 AM 51.8 °F - 44.6 °F 76% 29.62 in 10.0 mi South 4.6 mph - N/A   Clear
4:55 AM 53.6 °F - 44.6 °F 72% 29.61 in 10.0 mi South 5.8 mph - N/A   Clear
5:15 AM 53.6 °F - 44.6 °F 72% 29.60 in 10.0 mi South 5.8 mph - N/A   Clear
5:35 AM 53.6 °F - 44.6 °F 72% 29.60 in 10.0 mi South 8.1 mph - N/A   Clear
5:55 AM 53.6 °F - 44.6 °F 72% 29.60 in 10.0 mi South 8.1 mph - N/A   Clear
6:15 AM 55.4 °F - 44.6 °F 67% 29.60 in 10.0 mi South 8.1 mph 16.1 mph N/A   Clear
6:35 AM 55.4 °F - 44.6 °F 67% 29.59 in 10.0 mi South 8.1 mph - N/A   Clear
6:55 AM 55.4 °F - 44.6 °F 67% 29.59 in 10.0 mi South 8.1 mph - N/A   Clear
7:15 AM 55.4 °F - 44.6 °F 67% 29.58 in 10.0 mi South 6.9 mph - N/A   Clear
7:35 AM 55.4 °F - 46.4 °F 72% 29.58 in 10.0 mi SSW 9.2 mph - N/A   Clear
7:55 AM 55.4 °F - 46.4 °F 72% 29.58 in 10.0 mi SSW 8.1 mph - N/A   Clear
8:15 AM 57.2 °F - 46.4 °F 67% 29.57 in 10.0 mi SSW 8.1 mph - N/A   Clear
8:35 AM 57.2 °F - 48.2 °F 72% 29.57 in 10.0 mi SSW 8.1 mph - N/A   Clear
8:55 AM 60.8 °F - 50.0 °F 68% 29.57 in 10.0 mi SSW 11.5 mph 19.6 mph N/A   Clear
9:15 AM 62.6 °F - 50.0 °F 63% 29.56 in 10.0 mi SSW 11.5 mph 18.4 mph N/A   Clear
9:35 AM 62.6 °F - 51.8 °F 68% 29.56 in 10.0 mi SSW 12.7 mph 18.4 mph N/A   Clear
9:55 AM 64.4 °F - 51.8 °F 64% 29.55 in 10.0 mi SW 15.0 mph 18.4 mph N/A   Clear
10:15 AM 66.2 °F - 51.8 °F 60% 29.54 in 10.0 mi SSW 11.5 mph 17.3 mph N/A   Clear
10:35 AM 68.0 °F - 53.6 °F 60% 29.54 in 10.0 mi SW 17.3 mph 23.0 mph N/A   Clear
10:55 AM 68.0 °F - 53.6 °F 60% 29.53 in 10.0 mi SW 12.7 mph 18.4 mph N/A   Clear
11:15 AM 68.0 °F - 51.8 °F 56% 29.51 in 10.0 mi SW 13.8 mph 20.7 mph N/A   Partly Cloudy
11:35 AM 68.0 °F - 51.8 °F 56% 29.50 in 10.0 mi SW 10.4 mph 19.6 mph N/A   Partly Cloudy
11:55 AM 68.0 °F - 51.8 °F 56% 29.49 in 10.0 mi SW 9.2 mph - N/A   Partly Cloudy
12:15 PM 68.0 °F - 51.8 °F 56% 29.47 in 10.0 mi SW 8.1 mph 25.3 mph N/A   Mostly Cloudy
12:35 PM 68.0 °F - 51.8 °F 56% 29.45 in 10.0 mi SW 12.7 mph 18.4 mph N/A   Overcast
12:55 PM 68.0 °F - 51.8 °F 56% 29.44 in 10.0 mi SSW 18.4 mph 24.2 mph N/A   Overcast
1:15 PM 68.0 °F - 51.8 °F 56% 29.43 in 10.0 mi SSW 11.5 mph - N/A   Overcast
1:35 PM 68.0 °F - 51.8 °F 56% 29.41 in 10.0 mi South 16.1 mph 23.0 mph N/A   Overcast
1:55 PM 69.8 °F - 51.8 °F 53% 29.39 in 10.0 mi SSW 13.8 mph 29.9 mph N/A   Overcast
2:15 PM 68.0 °F - 53.6 °F 60% 29.36 in 10.0 mi SSW 15.0 mph 27.6 mph N/A   Overcast
2:35 PM 68.0 °F - 53.6 °F 60% 29.34 in 10.0 mi SSW 10.4 mph 27.6 mph N/A   Mostly Cloudy
2:55 PM 68.0 °F - 53.6 °F 60% 29.32 in 10.0 mi South 19.6 mph 28.8 mph N/A   Mostly Cloudy
3:15 PM 68.0 °F - 53.6 °F 60% 29.31 in 10.0 mi SSW 18.4 mph 25.3 mph N/A   Overcast
3:35 PM 68.0 °F - 53.6 °F 60% 29.29 in 10.0 mi SSW 17.3 mph 25.3 mph N/A   Overcast
3:55 PM 68.0 °F - 55.4 °F 64% 29.28 in 10.0 mi SSW 15.0 mph 24.2 mph N/A   Mostly Cloudy
4:15 PM 68.0 °F - 55.4 °F 64% 29.27 in 10.0 mi SSW 12.7 mph 32.2 mph N/A   Mostly Cloudy
4:35 PM 66.2 °F - 55.4 °F 68% 29.26 in 10.0 mi SSW 17.3 mph 25.3 mph N/A   Overcast
4:55 PM 66.2 °F - 55.4 °F 68% 29.26 in 10.0 mi SSW 16.1 mph 26.5 mph N/A   Overcast
5:15 PM 66.2 °F - 55.4 °F 68% 29.25 in 10.0 mi SW 19.6 mph 29.9 mph N/A   Overcast
5:35 PM 66.2 °F - 55.4 °F 68% 29.24 in 10.0 mi SSW 18.4 mph 27.6 mph N/A   Overcast
5:55 PM 66.2 °F - 55.4 °F 68% 29.23 in 10.0 mi SW 17.3 mph 27.6 mph N/A   Overcast
6:15 PM 66.2 °F - 55.4 °F 68% 29.23 in 10.0 mi SW 13.8 mph 28.8 mph N/A   Overcast
6:35 PM 64.4 °F - 55.4 °F 73% 29.23 in 10.0 mi SW 16.1 mph 23.0 mph N/A   Overcast
6:55 PM 64.4 °F - 55.4 °F 73% 29.21 in 10.0 mi SSW 16.1 mph 23.0 mph N/A   Overcast
7:15 PM 64.4 °F - 55.4 °F 73% 29.23 in 10.0 mi SW 13.8 mph 20.7 mph N/A   Mostly Cloudy
7:35 PM 64.4 °F - 55.4 °F 73% 29.23 in 10.0 mi SW 13.8 mph 23.0 mph N/A   Mostly Cloudy
7:55 PM 64.4 °F - 55.4 °F 73% 29.25 in 10.0 mi SW 16.1 mph 25.3 mph N/A   Overcast
8:15 PM 64.4 °F - 55.4 °F 73% 29.25 in 10.0 mi SW 17.3 mph 26.5 mph N/A   Overcast
8:35 PM 64.4 °F - 55.4 °F 73% 29.25 in 10.0 mi SW 13.8 mph 24.2 mph N/A   Overcast
8:55 PM 62.6 °F - 55.4 °F 77% 29.25 in 10.0 mi WSW 12.7 mph 23.0 mph 0.01 in   Overcast
9:15 PM 59.0 °F - 53.6 °F 82% 29.29 in 7.0 mi West 16.1 mph 28.8 mph 0.12 in   Mostly Cloudy
9:35 PM 57.2 °F - 53.6 °F 88% 29.30 in 10.0 mi West 11.5 mph 19.6 mph 0.18 in   Mostly Cloudy
9:55 PM 57.2 °F - 53.6 °F 88% 29.31 in 10.0 mi West 13.8 mph 27.6 mph 0.20 in   Overcast
10:15 PM 55.4 °F - 50.0 °F 82% 29.33 in 10.0 mi WNW 15.0 mph 21.9 mph N/A   Overcast
10:35 PM 53.6 °F - 42.8 °F 67% 29.35 in 10.0 mi WNW 17.3 mph 29.9 mph N/A   Overcast
10:55 PM 51.8 °F - 39.2 °F 62% 29.38 in 10.0 mi WNW 16.1 mph 27.6 mph N/A   Mostly Cloudy
11:15 PM 51.8 °F - 33.8 °F 50% 29.40 in 10.0 mi WNW 11.5 mph 28.8 mph N/A   Mostly Cloudy
11:35 PM 48.2 °F - 32.0 °F 54% 29.42 in 10.0 mi West 16.1 mph 24.2 mph N/A   Partly Cloudy
11:55 PM 48.2 °F - 28.4 °F 46% 29.45 in 10.0 mi West 13.8 mph 27.6 mph N/A   Clear